Wind_Speed
6 6 5 6 7 9 11 14 15 15 16 13 17 14 8 11 17 17 16 14 12 12 10 5 4 6 2 2 4 3 1 3 2 3 3 3 4 3 7 5 5 6 3 7 21
7 7 6 7 8 9 11 12 14 14 16 14 15 11 7 3 12 18 16 15 12 10 10 11 7 7 2 1 2 2 3 5 4 4 4 11 3 10 4 5 8 10 9 11 22
7 8 8 7 9 9 10 12 12 13 15 13 12 8 10 3 3 14 14 13 14 10 11 9 11 6 2 2 2 1 3 2 4 14 19 14 14 10 4 4 15 16 21 21 30
8 9 9 8 9 10 10 11 12 13 12 9 9 9 7 12 3 12 13 12 10 9 9 8 7 5 3 4 3 4 6 3 7 10 9 7 15 6 13 14 23 22 17 26 33
8 9 9 10 10 11 11 12 12 11 9 6 6 8 8 9 8 13 12 12 9 10 12 10 7 5 3 4 8 4 2 11 14 16 12 14 14 9 14 16 20 17 19 28 32
9 9 10 10 10 10 11 12 11 8 6 4 4 5 6 5 11 15 13 14 12 11 10 10 6 8 6 3 1 4 10 15 12 17 13 10 9 7 3 9 19 15 20 29 39
9 10 11 11 11 11 11 11 10 5 3 3 3 3 6 5 10 14 11 13 13 11 9 8 9 7 8 5 4 9 4 8 2 5 6 4 5 5 13 16 20 21 22 25 40
10 10 10 10 11 11 11 11 8 2 2 1 4 2 2 8 9 10 9 13 12 11 12 11 9 9 3 8 8 4 3 4 7 4 4 3 6 7 9 9 10 16 20 26 33
9 11 12 13 12 11 12 11 4 1 5 2 4 2 2 7 10 7 8 10 11 12 12 9 6 4 4 2 4 4 4 4 6 7 5 4 6 6 21 13 13 15 14 27 35
11 13 13 14 12 12 13 6 3 4 5 1 4 1 5 7 6 5 6 8 9 11 7 5 3 3 3 3 5 6 5 5 7 5 5 9 9 12 20 18 15 14 15 16 30
12 13 14 15 11 13 12 1 1 0 3 3 1 2 6 10 6 6 8 9 6 5 3 4 4 4 9 5 5 6 4 6 9 9 5 8 8 9 18 19 16 19 17 16 21
11 12 13 14 10 13 12 8 8 4 3 4 1 4 6 8 6 8 5 4 4 4 3 5 3 5 7 6 5 6 7 12 10 6 4 9 11 8 7 9 20 17 18 18 19
9 11 12 13 8 12 15 13 8 7 2 1 1 4 4 5 6 7 5 4 2 4 4 3 6 7 5 7 6 6 7 6 10 10 4 7 7 6 4 9 16 13 13 11 16
9 11 11 10 5 12 11 12 7 3 4 4 1 2 5 6 3 9 4 3 4 4 5 4 5 5 6 5 2 6 4 9 13 10 6 8 5 5 7 7 5 14 19 18 15
8 10 10 9 8 10 10 8 4 2 4 1 1 3 13 3 5 10 8 2 1 5 3 7 5 7 4 5 2 9 11 8 7 7 4 6 2 7 7 7 14 13 25 22 14
7 8 7 8 10 11 10 5 2 5 2 4 3 7 7 5 3 3 12 4 2 3 2 6 6 3 3 10 4 10 4 4 4 3 2 4 6 5 4 8 14 14 21 14 6
6 7 5 6 9 11 9 2 5 5 4 4 3 5 4 4 6 4 3 7 4 7 8 8 6 6 2 7 3 9 6 4 6 5 6 6 2 6 8 8 9 10 14 12 2
6 6 4 3 9 10 5 4 6 2 2 2 4 6 2 8 3 7 2 3 3 1 1 4 9 5 5 2 5 4 3 2 3 5 5 7 7 5 5 7 13 17 14 19 16
7 6 4 4 8 7 1 5 6 4 2 4 7 4 4 4 3 5 3 1 1 3 3 5 6 5 4 4 2 5 5 2 3 4 3 3 2 5 9 10 14 18 26 27 25
8 7 5 4 6 4 4 3 4 2 0 2 1 2 3 5 6 6 2 3 4 1 2 1 6 3 7 2 4 2 6 2 3 5 5 6 3 5 13 13 12 12 17 21 21
7 4 4 4 4 1 3 5 4 3 2 3 2 2 2 2 2 3 2 2 3 5 1 1 2 7 4 2 2 5 4 3 4 1 2 5 4 4 6 9 7 10 14 18 21
4 1 5 4 0 2 3 5 5 4 2 1 2 3 3 2 3 2 2 3 5 4 4 1 3 5 7 6 3 3 2 3 3 3 2 1 5 4 5 6 9 9 12 17 20
4 4 7 5 2 2 2 2 5 4 3 4 3 2 2 1 2 3 2 4 13 4 3 2 1 5 9 6 5 4 4 2 1 2 3 2 5 3 6 9 11 11 13 17 18
5 1 4 7 4 5 4 4 4 6 4 4 3 2 1 1 3 4 2 2 12 6 4 1 2 5 5 7 0 7 13 4 1 1 1 3 5 8 5 4 6 8 11 13 13
10 6 7 3 5 5 6 6 5 5 5 9 2 4 4 2 2 4 1 5 5 4 3 3 3 3 7 13 6 8 10 8 2 3 2 2 2 5 6 1 3 7 9 13 14
10 7 9 5 4 9 6 7 9 3 7 4 5 6 6 6 8 6 3 3 5 2 2 4 3 3 6 3 2 6 7 5 2 2 0 1 1 2 3 1 4 4 7 10 12
25 13 6 7 7 6 6 7 10 9 7 5 8 5 6 11 16 18 19 13 10 5 2 1 1 2 5 5 7 3 4 2 1 1 2 3 2 4 0 1 2 4 7 10 11
Wind_Direction
23 15 7 11 6 3 2 1 3 3 359 360 6 11 44 75 45 38 33 22 23 31 20 14 35 11 349 220 216 191 150 223 244 175 275 62 18 356 322 272 264 246 150 160 180
13 7 356 355 346 347 348 349 351 352 352 358 5 23 39 87 38 31 22 19 19 22 24 25 12 12 13 319 234 177 204 213 210 286 276 299 295 319 278 259 248 246 192 184 190
10 2 358 345 330 334 337 339 344 348 350 1 10 33 40 12 32 7 13 15 17 16 8 12 4 359 333 309 261 274 223 236 276 293 296 285 293 290 216 251 245 237 214 186 192
6 357 353 341 332 332 334 339 343 344 350 8 24 42 48 37 57 6 14 15 19 8 7 4 14 6 344 341 332 342 266 290 296 304 302 291 302 246 232 256 278 282 238 188 194
2 354 346 343 338 333 334 336 341 346 352 15 36 57 69 55 32 17 14 9 15 13 10 354 11 0 342 308 325 188 254 310 302 295 280 278 259 249 262 264 273 266 218 201 191
359 352 348 344 338 334 331 329 333 338 345 19 47 77 61 60 25 16 20 14 7 2 6 5 333 331 289 263 171 258 290 290 290 282 281 246 271 250 308 310 261 233 228 207 194
3 359 355 348 339 335 327 325 327 331 352 48 54 163 64 34 12 8 14 16 7 360 356 343 345 337 318 303 333 282 315 333 316 316 290 339 338 243 275 264 259 227 226 217 204
10 4 357 349 344 342 333 329 326 333 360 112 49 133 103 10 358 5 5 13 2 352 342 335 322 315 270 313 329 339 64 25 292 311 283 113 246 277 321 321 301 274 240 219 211
10 7 3 356 354 354 340 332 327 248 358 136 20 145 50 357 3 11 354 352 350 346 333 326 326 315 329 23 353 351 279 286 298 283 265 187 251 262 303 299 288 292 273 238 221
15 10 0 357 1 3 355 353 7 162 0 72 26 95 10 346 347 352 330 327 332 340 337 1 353 8 1 58 302 283 298 264 261 271 263 277 257 262 275 286 280 284 290 264 232
16 10 1 353 358 9 10 12 29 215 54 55 0 12 341 351 303 324 319 321 326 332 360 353 25 286 274 261 257 276 269 270 273 263 267 262 264 252 268 283 285 287 286 280 247
17 11 0 354 3 10 18 67 50 354 315 19 84 328 330 334 315 335 302 317 342 310 348 6 255 262 278 281 293 297 279 285 286 270 276 274 279 254 250 255 270 284 289 286 270
15 10 3 356 3 7 27 41 19 8 22 28 319 294 328 318 303 329 322 301 322 323 324 211 261 306 312 309 307 287 269 279 274 311 247 281 279 251 275 267 274 288 291 294 273
9 9 10 6 17 5 19 9 8 61 76 311 333 344 331 312 299 11 333 301 358 296 322 251 277 296 301 281 272 309 248 297 303 320 308 5 290 318 267 287 8 336 324 314 312
2 6 13 23 18 12 357 356 44 84 72 286 316 342 321 239 315 9 19 335 360 282 22 266 295 317 307 276 357 259 319 311 311 306 19 358 307 277 345 344 335 322 319 317 313
343 2 10 17 15 6 357 1 94 48 46 330 345 355 357 4 35 71 37 35 324 357 315 257 282 257 261 302 273 288 338 18 19 39 42 347 353 303 345 312 316 312 329 327 304
319 341 354 12 4 359 354 64 37 87 343 318 329 1 331 317 9 30 68 19 45 8 354 329 311 298 290 320 337 41 11 348 354 8 1 15 310 278 296 309 309 313 344 5 67
299 317 318 335 351 351 0 61 73 260 289 328 350 328 78 4 6 360 68 31 17 95 311 25 328 353 341 254 285 28 90 64 285 355 310 349 339 328 304 321 14 21 32 49 60
290 297 293 273 342 355 61 60 187 206 253 324 335 42 337 352 19 24 34 182 254 30 24 5 281 303 235 289 41 320 46 174 159 198 309 261 220 284 348 28 5 15 38 43 59
281 285 260 237 337 9 72 178 172 211 236 96 339 23 333 318 17 20 341 329 334 356 159 250 299 264 299 10 38 54 160 59 10 357 336 311 341 316 341 0 340 20 26 53 61
275 273 211 206 328 105 144 204 187 179 196 156 174 299 305 320 288 288 279 1 330 308 169 110 134 289 335 47 307 344 3 56 114 11 337 310 314 347 336 344 2 17 49 63 67
231 279 197 198 70 55 158 195 170 168 192 173 146 205 221 319 296 285 272 132 24 314 306 235 164 287 263 285 261 228 314 83 96 265 258 202 280 8 8 1 46 63 62 80 74
219 209 201 201 175 218 253 215 190 151 191 171 176 188 155 238 301 242 290 196 9 354 309 188 331 330 348 355 7 2 310 33 229 108 167 85 292 57 26 31 39 71 80 79 81
194 168 189 200 205 149 166 215 193 200 185 175 172 118 120 252 236 272 277 303 352 345 72 54 168 177 214 237 4 310 311 349 52 95 268 222 289 325 344 41 49 63 80 90 102
202 222 182 195 231 183 168 173 170 193 197 180 128 184 160 239 273 251 259 322 333 343 52 81 265 216 256 262 261 261 270 296 277 280 157 267 302 308 304 347 67 112 108 106 109
195 181 182 183 185 153 174 204 189 205 153 220 193 181 185 192 203 251 221 172 240 352 84 356 278 356 288 308 186 271 261 240 286 323 272 120 292 295 315 65 112 125 125 122 120
211 203 189 182 159 148 202 189 198 166 215 194 177 142 205 230 249 258 258 235 226 181 82 303 212 22 271 331 313 290 231 220 160 219 241 226 213 156 327 192 237 173 161 151 148
Height
1540 1539 1538 1536 1535 1533 1532 1531 1530 1526 1524 1522 1520 1517 1515 1514 1513 1511 1510 1511 1507 1505 1504 1502 1501 1500 1501 1502 1503 1502 1509 1514 1508 1503 1500 1496 1496 1495 1495 1493 1492 1490 1489 1488 1490
1540 1539 1538 1536 1536 1533 1532 1532 1529 1526 1524 1521 1519 1517 1516 1515 1514 1512 1512 1510 1508 1506 1505 1502 1501 1501 1501 1502 1501 1502 1508 1505 1501 1500 1499 1496 1496 1496 1495 1493 1490 1490 1489 1490 1488
1540 1539 1537 1536 1536 1532 1531 1530 1528 1525 1523 1520 1519 1517 1516 1515 1515 1514 1513 1511 1509 1508 1506 1504 1503 1502 1501 1501 1501 1501 1505 1499 1498 1498 1497 1496 1493 1494 1492 1492 1486 1484 1488 1487 1487
1540 1538 1537 1536 1534 1531 1530 1529 1527 1525 1522 1520 1519 1518 1517 1515 1522 1515 1514 1512 1510 1509 1507 1505 1504 1503 1503 1503 1501 1504 1499 1498 1497 1496 1495 1493 1490 1489 1488 1486 1482 1482 1484 1484 1485
1539 1538 1536 1535 1533 1531 1529 1528 1526 1524 1522 1520 1519 1519 1518 1517 1518 1516 1514 1512 1511 1510 1508 1506 1505 1504 1504 1503 1501 1501 1498 1497 1495 1493 1491 1489 1486 1485 1483 1483 1480 1479 1479 1481 1483
1539 1537 1536 1534 1531 1529 1528 1526 1524 1523 1521 1520 1519 1519 1518 1518 1518 1517 1515 1513 1511 1510 1508 1506 1505 1504 1503 1502 1502 1497 1496 1494 1491 1489 1487 1485 1483 1482 1478 1477 1477 1476 1475 1476 1478
1539 1537 1535 1532 1530 1528 1526 1524 1523 1521 1520 1519 1519 1519 1519 1521 1518 1516 1515 1513 1511 1510 1508 1507 1505 1505 1504 1501 1500 1497 1498 1493 1490 1487 1485 1483 1483 1479 1476 1474 1472 1473 1473 1474 1476
1538 1537 1534 1532 1529 1527 1524 1522 1521 1520 1520 1519 1519 1519 1519 1518 1517 1516 1514 1513 1511 1509 1507 1506 1505 1504 1502 1501 1498 1498 1499 1505 1490 1485 1482 1483 1491 1477 1474 1473 1472 1472 1474 1473 1473
1539 1536 1533 1530 1528 1525 1522 1520 1519 1519 1519 1519 1520 1519 1520 1518 1517 1515 1514 1512 1511 1509 1507 1505 1505 1504 1502 1503 1507 1503 1508 1503 1495 1483 1482 1482 1485 1475 1472 1471 1470 1469 1469 1470 1471
1537 1535 1532 1530 1527 1524 1521 1519 1518 1519 1520 1520 1520 1522 1520 1519 1517 1515 1514 1512 1510 1508 1507 1506 1505 1506 1505 1508 1515 1507 1506 1500 1497 1485 1480 1482 1482 1474 1469 1467 1466 1466 1464 1465 1466
1537 1535 1532 1529 1527 1525 1522 1519 1522 1522 1520 1521 1522 1521 1520 1519 1516 1515 1513 1511 1510 1509 1509 1507 1512 1513 1505 1502 1500 1500 1500 1499 1488 1480 1481 1478 1476 1472 1466 1462 1460 1460 1461 1461 1462
1537 1534 1532 1529 1527 1525 1523 1520 1524 1526 1522 1520 1520 1520 1520 1519 1517 1514 1513 1513 1510 1512 1509 1512 1513 1501 1499 1497 1498 1497 1497 1491 1482 1476 1477 1474 1470 1466 1463 1459 1456 1455 1455 1455 1456
1536 1534 1532 1529 1527 1526 1523 1524 1524 1523 1524 1522 1521 1520 1520 1519 1516 1514 1514 1512 1511 1511 1509 1513 1505 1499 1498 1498 1497 1494 1494 1489 1485 1474 1473 1471 1470 1461 1458 1455 1453 1453 1451 1450 1448
1536 1534 1532 1529 1529 1526 1524 1525 1524 1524 1530 1525 1521 1521 1519 1517 1516 1514 1513 1514 1511 1512 1508 1509 1501 1500 1499 1496 1493 1496 1481 1481 1479 1479 1480 1479 1478 1468 1456 1454 1455 1452 1450 1445 1443
1535 1533 1531 1529 1528 1527 1527 1525 1524 1525 1550 1525 1522 1521 1518 1518 1516 1515 1514 1511 1513 1511 1511 1512 1503 1501 1499 1492 1490 1490 1481 1481 1481 1483 1486 1484 1487 1475 1464 1462 1457 1451 1448 1441 1437
1534 1532 1531 1530 1528 1527 1525 1524 1525 1534 1545 1528 1523 1523 1519 1516 1516 1515 1515 1512 1511 1510 1509 1507 1500 1499 1496 1490 1487 1484 1482 1484 1485 1489 1494 1492 1491 1482 1474 1468 1458 1453 1447 1437 1434
1533 1532 1530 1529 1528 1526 1525 1525 1535 1546 1532 1532 1529 1527 1526 1523 1518 1518 1521 1522 1525 1527 1524 1514 1503 1497 1495 1496 1487 1488 1493 1502 1510 1505 1492 1494 1490 1486 1472 1467 1461 1454 1445 1439 1436
1532 1531 1529 1529 1527 1525 1524 1526 1542 1537 1536 1530 1529 1528 1527 1527 1523 1523 1524 1528 1523 1524 1532 1532 1525 1502 1495 1497 1497 1496 1500 1507 1520 1514 1505 1491 1490 1482 1469 1465 1460 1456 1450 1445 1442
1530 1529 1528 1527 1527 1525 1525 1540 1540 1537 1534 1534 1532 1533 1533 1529 1529 1525 1527 1528 1524 1523 1530 1534 1524 1501 1498 1495 1495 1496 1508 1508 1512 1512 1514 1492 1476 1477 1467 1465 1463 1460 1456 1452 1450
1527 1527 1526 1526 1525 1525 1527 1535 1533 1531 1532 1533 1539 1535 1538 1535 1533 1531 1529 1526 1525 1523 1523 1525 1533 1505 1499 1494 1496 1497 1505 1507 1512 1509 1506 1497 1490 1485 1471 1470 1467 1466 1464 1462 1459
1526 1524 1524 1524 1524 1524 1532 1532 1529 1529 1531 1533 1535 1537 1536 1536 1534 1532 1528 1529 1525 1524 1523 1523 1529 1515 1504 1501 1504 1505 1505 1505 1510 1510 1512 1516 1494 1483 1483 1477 1474 1472 1470 1467 1466
1523 1524 1522 1523 1526 1526 1530 1527 1525 1526 1528 1530 1531 1533 1534 1533 1534 1531 1529 1525 1526 1525 1525 1522 1530 1531 1512 1500 1500 1502 1499 1503 1514 1519 1508 1509 1502 1484 1484 1480 1479 1476 1475 1473 1471
1520 1520 1520 1521 1526 1527 1524 1524 1524 1525 1526 1528 1530 1531 1531 1533 1536 1531 1527 1524 1524 1523 1523 1522 1530 1537 1517 1507 1502 1504 1503 1503 1504 1509 1511 1519 1499 1484 1485 1483 1483 1481 1479 1477 1477
1517 1518 1518 1519 1519 1520 1523 1523 1524 1523 1524 1525 1527 1529 1531 1532 1530 1530 1527 1523 1523 1522 1521 1522 1528 1530 1535 1521 1516 1514 1506 1502 1504 1512 1507 1507 1498 1486 1486 1488 1487 1486 1484 1483 1485
1511 1508 1508 1517 1516 1515 1518 1519 1521 1522 1522 1523 1527 1527 1529 1533 1532 1530 1526 1525 1523 1522 1522 1525 1529 1527 1522 1515 1514 1512 1507 1503 1498 1496 1499 1497 1494 1492 1488 1488 1489 1491 1490 1490 1491
1503 1503 1503 1505 1507 1512 1515 1517 1517 1518 1520 1522 1524 1525 1527 1530 1528 1529 1525 1527 1526 1524 1525 1527 1530 1527 1521 1508 1508 1509 1499 1496 1496 1494 1494 1495 1495 1492 1489 1487 1489 1489 1490 1491 1491
1495 1494 1497 1498 1503 1509 1508 1507 1509 1512 1515 1515 1517 1522 1525 1521 1520 1519 1518 1519 1520 1522 1527 1529 1532 1530 1526 1514 1509 1505 1493 1492 1494 1494 1495 1496 1491 1492 1492 1490 1489 1489 1491 1491 1492